2023/01/10 00:00:00,81.9, 0.6
2023/01/10 00:10:00,82.1, 0.2
2023/01/10 00:20:00,82.2, 0.2
2023/01/10 00:30:00,82.2, 0.0
2023/01/10 00:40:00,82.2, 0.0
2023/01/10 00:50:00,82.2,-0.1
2023/01/10 01:00:00,82.4,-0.4
2023/01/10 01:10:00,82.4,-0.4
2023/01/10 01:20:00,82.5,-0.5
2023/01/10 01:30:00,82.6,-0.6
2023/01/10 01:40:00,82.8,-0.7
2023/01/10 01:50:00,83.2,-0.7
2023/01/10 02:00:00,83.7,-0.8
2023/01/10 02:10:00,84.0,-0.9
2023/01/10 02:20:00,84.1,-1.1
2023/01/10 02:30:00,84.0,-1.1
2023/01/10 02:40:00,84.2,-1.2
2023/01/10 02:50:00,84.1,-1.2
2023/01/10 03:00:00,84.3,-1.3
2023/01/10 03:10:00,84.3,-1.6
2023/01/10 03:20:00,84.2,-1.7
2023/01/10 03:30:00,84.3,-1.7
2023/01/10 03:40:00,84.5,-1.8
2023/01/10 03:50:00,84.4,-2.0
2023/01/10 04:00:00,84.3,-1.7
2023/01/10 04:10:00,84.3,-1.6
2023/01/10 04:20:00,84.4,-1.9
2023/01/10 04:30:00,84.5,-1.6
2023/01/10 04:40:00,84.3,-1.8
2023/01/10 04:50:00,84.2,-2.0
2023/01/10 05:00:00,84.1,-2.1
2023/01/10 05:10:00,84.0,-1.7
2023/01/10 05:20:00,83.9,-2.0
2023/01/10 05:30:00,83.7,-1.9
2023/01/10 05:40:00,83.7,-2.0
2023/01/10 05:50:00,83.5,-2.1
2023/01/10 06:00:00,83.3,-2.4
2023/01/10 06:10:00,83.2,-2.4
2023/01/10 06:20:00,83.1,-2.3
2023/01/10 06:30:00,83.0,-2.3
2023/01/10 06:40:00,82.9,-2.4
2023/01/10 06:50:00,83.2,-2.5
2023/01/10 07:00:00,83.5,-2.5
2023/01/10 07:10:00,83.4,-2.4
2023/01/10 07:20:00,83.3,-2.5
2023/01/10 07:30:00,83.2,-2.5
2023/01/10 07:40:00,83.1,-2.6
2023/01/10 07:50:00,83.1,-2.5
2023/01/10 08:00:00,83.0,-2.3
2023/01/10 08:10:00,82.9,-2.2
2023/01/10 08:20:00,82.8,-2.3
2023/01/10 08:30:00,82.8,-1.9
2023/01/10 08:40:00,82.9,-1.7
2023/01/10 08:50:00,82.8,-1.5
2023/01/10 09:00:00,82.7,-1.4
2023/01/10 09:10:00,82.5,-0.8
2023/01/10 09:20:00,82.5,-1.4
2023/01/10 09:30:00,82.5,-1.6
2023/01/10 09:40:00,82.5,-1.7
2023/01/10 09:50:00,82.5,-1.3
2023/01/10 10:00:00,82.4,-1.1
2023/01/10 10:10:00,82.4,-0.3
2023/01/10 10:20:00,82.3, 1.1
2023/01/10 10:30:00,82.1, 0.8
2023/01/10 10:40:00,82.1,-0.4
2023/01/10 10:50:00,82.0,-0.9
2023/01/10 11:00:00,81.7,-0.2
2023/01/10 11:10:00,81.7, 0.0
2023/01/10 11:20:00,81.7,-0.7
2023/01/10 11:30:00,81.7,-1.0
2023/01/10 11:40:00,81.6,-1.2
2023/01/10 11:50:00,81.5,-1.2
2023/01/10 12:00:00,81.7,-1.1
2023/01/10 12:10:00,81.5, 0.7
2023/01/10 12:20:00,81.3, 1.4
2023/01/10 12:30:00,81.3, 1.1
2023/01/10 12:40:00,81.2, 0.4
2023/01/10 12:50:00,81.2, 0.3
2023/01/10 13:00:00,81.1, 2.8
2023/01/10 13:10:00,81.1, 2.1
2023/01/10 13:20:00,81.1, 1.8
2023/01/10 13:30:00,80.9, 2.6
2023/01/10 13:40:00,80.8, 3.2
2023/01/10 13:50:00,80.8, 2.4
2023/01/10 14:00:00,80.7, 1.4
2023/01/10 14:10:00,80.4, 1.4
2023/01/10 14:20:00,80.4, 1.0
2023/01/10 14:30:00,80.3, 0.5
2023/01/10 14:40:00,80.2, 0.6
2023/01/10 14:50:00,80.1, 1.1
2023/01/10 15:00:00,80.0, 1.5
2023/01/10 15:10:00,80.0, 0.7
2023/01/10 15:20:00,80.1, 0.1
2023/01/10 15:30:00,80.0, 0.7
2023/01/10 15:40:00,80.0, 0.7
2023/01/10 15:50:00,79.9,-0.1
2023/01/10 16:00:00,79.9,-0.8
2023/01/10 16:10:00,79.8,-0.7
2023/01/10 16:20:00,79.7,-1.1
2023/01/10 16:30:00,79.7,-1.1
2023/01/10 16:40:00,79.8,-0.7
2023/01/10 16:50:00,79.7,-1.4
2023/01/10 17:00:00,79.6,-1.6
2023/01/10 17:10:00,79.6,-2.1
2023/01/10 17:20:00,79.5,-2.8
2023/01/10 17:30:00,79.4,-3.0
2023/01/10 17:40:00,79.4,-3.5
2023/01/10 17:50:00,79.3,-3.5
2023/01/10 18:00:00,79.3,-4.0
2023/01/10 18:10:00,79.2,-3.9
2023/01/10 18:20:00,79.2,-3.9
2023/01/10 18:30:00,79.1,-4.0
2023/01/10 18:40:00,79.1,-4.3
2023/01/10 18:50:00,79.0,-4.5
2023/01/10 19:00:00,79.0,-4.3
2023/01/10 19:10:00,78.9,-4.5
2023/01/10 19:20:00,78.9,-4.3
2023/01/10 19:30:00,78.9,-4.3
2023/01/10 19:40:00,78.8,-4.3
2023/01/10 19:50:00,78.7,-4.8
2023/01/10 20:00:00,78.7,-4.6
2023/01/10 20:10:00,78.7,-4.8
2023/01/10 20:20:00,78.6,-4.9
2023/01/10 20:30:00,78.6,-4.9
2023/01/10 20:40:00,78.5,-4.8
2023/01/10 20:50:00,78.5,-5.0
2023/01/10 21:00:00,78.4,-5.0
2023/01/10 21:10:00,78.4,-5.0
2023/01/10 21:20:00,78.3,-4.9
2023/01/10 21:30:00,78.3,-5.0
2023/01/10 21:40:00,78.2,-4.8
2023/01/10 21:50:00,78.2,-5.1
2023/01/10 22:00:00,78.2,-5.3
2023/01/10 22:10:00,78.2,-5.4
2023/01/10 22:20:00,78.1,-5.4
2023/01/10 22:30:00,78.1,-5.1
2023/01/10 22:40:00,78.0,-5.4
2023/01/10 22:50:00,78.0,-5.6
2023/01/10 23:00:00,78.0,-5.7
2023/01/10 23:10:00,77.8,-5.3
2023/01/10 23:20:00,77.8,-5.5
2023/01/10 23:30:00,77.8,-5.6
2023/01/10 23:40:00,77.7,-5.8
2023/01/10 23:50:00,77.7,-5.4
